Other Public Products
Issued by NWS Grand Forks, ND

Home | Current Version | Previous Version | Text Only | Print | Product List | Glossary Off
Versions: 1 2 3 4 5 6 7 8 9 10 11 12 13 14 15 16 17 18 19 20 21 22 23 24 25 26 27 28 29 30 31 32 33 34 35 36 37 38 39 40 41 42 43 44 45 46 47 48 49 50

000
FPUS83 KFGF 281810
OPUFGF
PRAIRIE TO PINES WEATHER ROUNDUP
NATIONAL WEATHER SERVICE EASTERN NORTH DAKOTA/GRAND FORKS ND
100 PM CDT MON JUL 28 2014

 **SATELLITE DATA USED TO AUGMENT SKY COVER AT AUTOMATED STATIONS**
 *****  WEATHER ACROSS EASTERN NORTH DAKOTA  *****

CITY           SKY/WX    TMP DP  RH WIND       PRES   REMARKS
GRAND FORKS    MOSUNNY   71  54  54 N8        30.25F
6HR MIN TEMP:  59; 6HR MAX TEMP:  74;

GRAND FORKS AF MOSUNNY   71  56  59 NW12      30.27F
GRAND CITY NWS   N/A     73 N/A N/A N7          N/A
BUXTON         NOT AVBL
DEVILS LAKE    PTSUNNY   70  52  52 NW8       30.28F
6HR MIN TEMP:  52; 6HR MAX TEMP:  70;

FARGO          PTSUNNY   72  54  53 NW14      30.25F
6HR MIN TEMP:  60; 6HR MAX TEMP:  73;

WAHPETON ARPT  CLOUDY    72  48  43 N9G16     30.26F
$$

 *****  WEATHER ACROSS CENTRAL AND WESTERN NORTH DAKOTA  *****

CITY           SKY/WX    TMP DP  RH WIND       PRES   REMARKS
JAMESTOWN      CLOUDY    68  50  52 N8        30.29F
6HR MIN TEMP:  56; 6HR MAX TEMP:  69;

BISMARCK       PTSUNNY   71  51  49 W5        30.32F
6HR MIN TEMP:  44; 6HR MAX TEMP:  72;

MINOT          SUNNY     72  53  51 N3        30.30F
6HR MIN TEMP:  52; 6HR MAX TEMP:  72;

MINOT AFB      MOSUNNY   71  55  56 VRB2      30.29F
6HR MIN TEMP:  51; 6HR MAX TEMP:  71;

GARRISON         N/A     72  53  51 N3        30.31F
6HR MIN TEMP:  49; 6HR MAX TEMP:  72;

WILLISTON      SUNNY     77  52  41 VRB3      30.29F
6HR MIN TEMP:  53; 6HR MAX TEMP:  78;

DICKINSON      MOSUNNY   74  53  48 SE6       30.31F
6HR MIN TEMP:  49; 6HR MAX TEMP:  74;

HETTINGER      MOSUNNY   73  52  47 VRB5      30.33F
6HR MIN TEMP:  44; 6HR MAX TEMP:  73;

$$

 *****  OTHER OBSERVATIONS NORTHEAST NORTH DAKOTA  *****

CITY           SKY/WX    TMP DP  RH WIND       PRES   REMARKS
WALHALLA       FAIR      72  54  53 N12         N/A
LANGDON        FAIR      72  48  43 N10       30.29F
CAVALIER       FAIR      72  52  49 N10       30.26F
GRAFTON        FAIR      72  54  53 NW12      30.26F
CANDO          MOCLDY    72  54  53 NW7       30.30F
FORT TOTTEN      N/A     72  56  58 N3        29.95
ROLLA            N/A     68  54  60 N8        30.32S
RUGBY          FAIR      68  52  56 W6        30.30F
 ***** THE ABOVE OBSERVATIONS ARE NON NWS ARE NOT QUALITY
        CONTROLLED AND MAY MIS-REPORT RAIN FOR SNOW...
$$

 *****  OTHER OBSERVATIONS SOUTHEAST NORTH DAKOTA *****

CITY           SKY/WX    TMP DP  RH WIND       PRES   REMARKS
COOPERSTOWN    NOT AVBL
VALLEY CITY    CLOUDY    70  50  49 N10       30.29S
OAKES          NOT AVBL
GWINNER        CLOUDY    72  52  49 N12       30.29F
BUFFALO        NOT AVBL
WYNDMERE       NOT AVBL
 ***** THE ABOVE OBSERVATIONS ARE NON NWS ARE NOT QUALITY
       CONTROLLED AND MAY MIS-REPORT RAIN FOR SNOW...
$$

  *****  WEATHER ACROSS NORTHERN MINNESOTA  *****

CITY           SKY/WX    TMP DP  RH WIND       PRES   REMARKS
FLAG ISLAND    SUNNY     72  54  53 N10       30.20F
WARROAD        MOSUNNY   72  57  60 NW9       30.23F
ROSEAU         SUNNY     73  57  56 N7        30.23F
HALLOCK        MOSUNNY   72  57  60 N10       30.25F
THF RVR FALLS  MOSUNNY   70  54  56 N12       30.25F
6HR MIN TEMP:  59; 6HR MAX TEMP:  70;

HALSTAD          N/A     73  50  43 N10         N/A
FOSSTON        MOSUNNY   70  54  56 NW12G17   30.25F
BAUDETTE       SUNNY     72  51  47 NW13G21   30.22F
6HR MIN TEMP:  57; 6HR MAX TEMP:  73;

WASKISH        MOSUNNY   72  55  56 CALM      30.21F
CROOKSTON      PTSUNNY   70  55  60 N8        30.26F
$$
  *****  WEATHER ACROSS CENTRAL AND WEST MINNESOTA  *****

CITY           SKY/WX    TMP DP  RH WIND       PRES   REMARKS
BEMIDJI        PTSUNNY   69  51  53 N8        30.23F
PARK RAPIDS    CLOUDY    71  51  49 N16       30.23F
6HR MIN TEMP:  59; 6HR MAX TEMP:  72;

WADENA         MOSUNNY   72  52  49 NW10      30.23F
DETROIT LAKES  SUNNY     68  52  56 N13       30.27S
MOORHEAD       MOSUNNY   70  55  60 N12       30.26F
FERGUS FALLS   MOSUNNY   70  52  52 N9G17     30.25F
ELBOW LAKE     CLOUDY    68  56  65 N10       30.26F
MORRIS MN      PTSUNNY   70  57  64 NW12      30.25F
STAPLES        PTSUNNY   72  52  49 NW10      30.22F
WHEATON        NOT AVBL
$$
  *****  WEATHER ELSEWHERE ACROSS MINNESOTA  *****

CITY           SKY/WX    TMP DP  RH WIND       PRES   REMARKS
DULUTH         MOSUNNY   71  52  50 NW10G21   30.17F
6HR MIN TEMP:  58; 6HR MAX TEMP:  72;

INTRNTL FALLS  MOSUNNY   73  54  51 NW13G20   30.17F
6HR MIN TEMP:  52; 6HR MAX TEMP:  74;

ELY            MOSUNNY   70  52  52 W12       30.15F
CLOQUET        MOSUNNY   72  48  43 NW12G18   30.18F
BRAINERD       MOSUNNY   72  51  47 N13G21    30.21F
6HR MIN TEMP:  61; 6HR MAX TEMP:  73;

HIBBING        PTSUNNY   71  53  52 NW13      30.19F
6HR MIN TEMP:  58; 6HR MAX TEMP:  73;

ALEXANDRIA     PTSUNNY   70  50  49 N12       30.25F
6HR MIN TEMP:  62; 6HR MAX TEMP:  71;

SAINT CLOUD    PTSUNNY   73  52  47 NW9       30.20F
6HR MIN TEMP:  63; 6HR MAX TEMP:  76;

MINNEAPOLIS    PTSUNNY   75  48  38 N10G18    30.19F
6HR MIN TEMP:  64; 6HR MAX TEMP:  75;

$$

  *****  WEATHER ACROSS SOUTH DAKOTA  *****

CITY           SKY/WX    TMP DP  RH WIND       PRES   REMARKS
SIOUX FALLS    PTSUNNY   73  56  54 N9G16     30.26F
6HR MIN TEMP:  60; 6HR MAX TEMP:  73;

BROOKINGS      NOT AVBL
WATERTOWN      CLOUDY    67  50  54 N13       30.27F
6HR MIN TEMP:  59; 6HR MAX TEMP:  72;

HURON          CLOUDY    71  51  49 N8        30.28F
6HR MIN TEMP:  50; 6HR MAX TEMP:  72;

SISSETON         N/A     71  50  47 N13G20    30.26F
ABERDEEN       MOSUNNY   70  49  47 NE8       30.28F
6HR MIN TEMP:  55; 6HR MAX TEMP:  72;

MITCHELL       MOSUNNY   74  55  51 N8        30.29F
PIERRE         SUNNY     73  52  47 N9        30.29F
6HR MIN TEMP:  54; 6HR MAX TEMP:  74;

MOBRIDGE       PTSUNNY   71  53  52 VRB3      30.29F
RAPID CITY     SUNNY     76  57  51 SE10      30.32F
6HR MIN TEMP:  54; 6HR MAX TEMP:  76;

$$

  *****  SOME WEATHER IN NEARBY STATES *****

CITY           SKY/WX    TMP DP  RH WIND       PRES   REMARKS
GLASGOW MT     SUNNY     82  46  28 VRB5      30.25F
6HR MIN TEMP:  55; 6HR MAX TEMP:  82;

GREAT FALLS MT MOSUNNY   81  43  26 N9        30.23F
6HR MIN TEMP:  58; 6HR MAX TEMP:  81;

CHEYENNE WY    SUNNY     79  52  38 SE9G20    30.40F
6HR MIN TEMP:  56; 6HR MAX TEMP:  79;

SCOTTSBLUFF NE SUNNY     79  58  48 E10       30.32F
6HR MIN TEMP:  58; 6HR MAX TEMP:  79;

OMAHA NE       PTSUNNY   73  56  54 N9        30.26F
6HR MIN TEMP:  58; 6HR MAX TEMP:  73;

DES MOINES IA  PTSUNNY   74  54  49 N9        30.21F
6HR MIN TEMP:  62; 6HR MAX TEMP:  76;

DAVENPORT IA   MOSUNNY   71  50  47 N15       30.16F
6HR MIN TEMP:  58; 6HR MAX TEMP:  71;

CHICAGO IL     MOSUNNY   69  41  36 N21G26    30.08F
6HR MIN TEMP:  60; 6HR MAX TEMP:  70;

EAU CLAIRE WI  PTSUNNY   72  46  39 NW14G20   30.16F
6HR MIN TEMP:  58; 6HR MAX TEMP:  75;

LA CROSSE WI   CLOUDY    74  47  38 NW8       30.16S
6HR MIN TEMP:  59; 6HR MAX TEMP:  76;

$$

  *****  SOME NATIONAL WEATHER *****

CITY           SKY/WX    TMP DP  RH WIND       PRES   REMARKS
LA GUARDIA NY  PTSUNNY   82  61  48 SW13G20   29.51F
6HR MIN TEMP:  72; 6HR MAX TEMP:  82;




USA.gov is the U.S. government's official web portal to all federal, state and local government web resources and services.